Flag for Germany Weather for the Past 2 Weeks in Bietigheim-Bissingen, Baden-Württemberg, Germany

Now
45 °F

Clear.


Feels Like: 45 °F
Forecast: 46 / 74 °F
Wind: 1 mph from North

Location: Stuttgart-Echterdingen

Current Time: May 6, 2016 at 4:11:20 AM

Latest Report: May 6, 2016 at 3:50 AM


Visibility: 10 mi

Pressure: 30.04 "Hg

Humidity: 87%

Dew Point: 41 °F

Location of Bietigheim-BissingenLocation

Historic Weather in Bietigheim-Bissingen — Graph

°F

Bietigheim-Bissingen Temperature Yesterday

Maximum temperature yesterday: 63 °F (at 2:50 PM)
Minimum temperature yesterday: 39 °F (at 4:20 AM)
Average temperature yesterday: 52 °F

High & Low Weather Summary for the Past Weeks

 TemperatureHumidityPressure
High68 °F (Apr 21, 3:50 PM)100% (Apr 24, 10:50 PM)30.36 "Hg (Apr 24, 10:50 PM)
Low30 °F (Apr 29, 3:50 AM)24% (Apr 21, 6:20 PM)29.56 "Hg (Apr 26, 5:50 AM)
Average47 °F70%30.00 "Hg
* Reported Apr 21 2:20 AM — May 6 2:50 AM, Bietigheim-Bissingen, Weather by CustomWeather, © 2016

Note: Actual official high and low records may vary slightly from our data, if they occured in-between our weather recording intervals... More about our weather records

Advertising

Bietigheim-Bissingen Weather History for the Previous 24 Hours

Scroll right to see more
 ConditionsComfort  
Time TempWeatherWind HumidityBarometerVisibility
2:50 AM
Fri, May 6
45 °FClear.2 mph87%30.04 "Hg10 mi
2:20 AM46 °FClear.2 mph82%30.07 "Hg10 mi
1:50 AM45 °FClear.1 mph81%30.07 "Hg10 mi
1:20 AM48 °FClear.2 mph76%30.07 "Hg10 mi
12:50 AM46 °FClear.2 mph82%30.07 "Hg10 mi
12:20 AM48 °FClear.3 mph82%30.07 "Hg10 mi
11:50 PM
Thu, May 5
50 °FClear.2 mph76%30.07 "Hg10 mi
11:20 PM50 °FClear.5 mph76%30.07 "Hg10 mi
10:50 PM50 °FClear.5 mph76%30.09 "Hg10 mi
10:20 PM52 °FClear.5 mph72%30.09 "Hg10 mi
9:50 PM54 °FClear.5 mph67%30.09 "Hg10 mi
9:20 PM55 °FSunny.7 mph63%30.09 "Hg10 mi
8:50 PM55 °FSunny.8 mph67%30.09 "Hg10 mi
8:20 PM59 °FSunny.8 mph55%30.09 "Hg10 mi
7:50 PM61 °FPassing clouds.12 mph55%30.09 "HgN/A
7:20 PM63 °FSunny.16 mph49%30.09 "Hg10 mi
6:50 PM63 °FSunny.14 mph49%30.09 "Hg10 mi
6:20 PM63 °FPassing clouds.14 mph49%30.09 "HgN/A
5:50 PM63 °FPassing clouds.16 mph49%30.09 "HgN/A
5:20 PM63 °FPassing clouds.15 mph52%30.12 "HgN/A
4:50 PM63 °FSunny.16 mph49%30.12 "Hg10 mi
4:20 PM63 °FSunny.16 mph49%30.12 "Hg10 mi
3:50 PM63 °FSunny.16 mph52%30.12 "Hg10 mi
3:20 PM63 °FPassing clouds.15 mph52%30.15 "HgN/A
2:50 PM63 °FPassing clouds.15 mph52%30.15 "HgN/A
2:20 PM61 °FPassing clouds.16 mph52%30.15 "HgN/A
1:50 PM61 °FPassing clouds.15 mph52%30.18 "HgN/A
1:20 PM59 °FPassing clouds.18 mph51%30.18 "HgN/A
12:50 PM59 °FPassing clouds.17 mph48%30.18 "HgN/A
12:20 PM59 °FPassing clouds.16 mph51%30.21 "HgN/A
11:50 AM57 °FPassing clouds.17 mph51%30.21 "HgN/A
11:20 AM55 °FPassing clouds.18 mph59%30.21 "HgN/A
10:50 AM54 °FPassing clouds.14 mph63%30.21 "HgN/A
10:20 AM54 °FSunny.16 mph63%30.21 "Hg10 mi
9:50 AM50 °FPassing clouds.16 mph67%30.24 "HgN/A
9:20 AM50 °FSunny.14 mph71%30.24 "Hg10 mi
8:50 AM46 °FSunny.13 mph76%30.24 "Hg10 mi
8:20 AM46 °FPassing clouds.9 mph76%30.24 "HgN/A
7:50 AM45 °FPassing clouds.5 mph76%30.27 "HgN/A
7:20 AM43 °FSunny.3 mph81%30.27 "Hg10 mi
6:50 AM41 °FClear.2 mph81%30.27 "Hg10 mi
6:20 AM39 °FClear.2 mph81%30.27 "Hg10 mi
5:50 AM39 °FClear.1 mph81%30.27 "Hg10 mi
5:20 AM39 °FClear.2 mph81%30.27 "Hg10 mi
4:50 AM39 °FPassing clouds.3 mph75%30.27 "HgN/A
4:20 AM39 °FClear.2 mph70%30.27 "Hg10 mi
Weather by CustomWeather, © 2016

See weather overviewHow to use our weather pages